ONEWEB-0235 (48771 NORAD) Tracking and Keplerian Element Data

This shows tracking and keplerian element data for the satellite.

Feedback or suggestion? Click here.




ElementValue
Catalog48771
NameONEWEB-0235
Epoch Orbit351
Epoch Day214.91667824
Epoch Year2021
RAAN254.829
Inclination87.642
Eccentricity0.0007741
Argument of Perigee54.7537
Mean Anonmoly260.6316
Mean Motion14.32135884
Decay Rate-0.01360259
L11 48771U 21045E 21214.91667824 -.01360259 00000-0 -54548+0 0 9995
L22 48771 87.6420 254.8290 0007741 54.7537 260.6316 14.32135884 3518

Live tracking and technical data element details for ONEWEB-0235 (NORAD 48771). ONEWEB-0235 can be tracked NOW for your location showing map with azimuth and elevation plus other details from your city location.

Track the satellite on the map from your city or location and see movement details for azimuth, elevation, latitude, longitude, range, height, and movement on the map or in text.







IsCatalogInMostPopularTable: catalog: 48771, numindb: 16
Update: records affected: 1



GetName: 48771 ONEWEB-0235

Hit Count: updated at: Tue, 03 Aug 2021 23:33:41 GMT